Change the Weather History Date:

Saturday, November 3, 2012

  Actual Average Record
Temperature  
Mean Temperature 46 °F -  
Max Temperature 49 °F 51 °F - ()
Min Temperature 42 °F 43 °F - ()
Degree Days  
Heating Degree Days 20    
Moisture  
Dew Point 40 °F    
Average Humidity 76    
Maximum Humidity 87    
Minimum Humidity 61    
Precipitation  
Precipitation 0.00 in - - ()
Sea Level Pressure  
Sea Level Pressure 29.43 in    
Wind  
Wind Speed 13 mph ()    
Max Wind Speed 21 mph    
Max Gust Speed 40 mph    
Visibility 7.5 miles    
Events Rain    
T = Trace of Precipitation, MM = Missing Value Source: Averaged Metar Reports

Daily Weather History Graph

Daily Weather History Graph

Search for Another Location

Airport or City:

Trip Planner

Search our weather history database for the weather conditions in past years. The results will help you decide how hot, cold, wet, or windy it might be!

Date:

Astronomy

Nov. 03, 2012 Rise Set
Actual Time 7:14 AM GMT 4:53 PM GMT
Civil Twilight 6:40 AM GMT 5:27 PM GMT
Nautical Twilight 6:02 AM GMT 6:06 PM GMT
Astronomical Twilight 5:24 AM GMT 6:43 PM GMT
Moon 8:11 PM GMT (11/3) 11:20 AM GMT (11/3)
Length of Visible Light 10h 47m
Length of Day
9h 38m
Waning Gibbous, 82% of the Moon is Illuminated
Nov 3
Waning Gibbous
Nov 7
Last Quarter
Nov 13
New
Nov 20
First Quarter
Nov 28
Full

Hourly Weather History & Observations

Time (GMT) Temp. Windchill Dew Point Humidity Pressure Visibility Wind Dir Wind Speed Gust Speed Precip Events Conditions
12:50 AM 44.6 °F 36.4 °F 41.0 °F 87% 29.36 in 4.3 mi West 20.7 mph 40.3 mph N/A Rain Light Rain Showers
1:50 AM 46.4 °F 40.4 °F 39.2 °F 76% 29.36 in 6.2 mi West 13.8 mph 28.8 mph N/A   Scattered Clouds
2:50 AM 45 °F - 41 °F 79% 29.37 in 12 mi West 19.6 mph - -   Partly Cloudy
2:50 AM 44.6 °F 36.6 °F 41.0 °F 87% 29.36 in 6.2 mi West 19.6 mph 34.5 mph N/A   Scattered Clouds
3:50 AM 44.6 °F 37.8 °F 41.0 °F 87% 29.36 in 6.2 mi WNW 15.0 mph 26.5 mph N/A   Scattered Clouds
4:50 AM 42.8 °F 37.0 °F 39.2 °F 87% 29.39 in 6.2 mi WNW 10.4 mph - N/A   Scattered Clouds
5:50 AM 46 °F - 40 °F 72% 29.41 in 12 mi West 11.5 mph - -   Partly Cloudy
5:50 AM 46.4 °F 41.1 °F 39.2 °F 76% 29.39 in 6.2 mi West 11.5 mph - N/A   Scattered Clouds
6:50 AM 46.4 °F 40.1 °F 37.4 °F 71% 29.42 in 6.2 mi West 15.0 mph 26.5 mph N/A   Scattered Clouds
7:50 AM 44.6 °F 38.4 °F 39.2 °F 81% 29.42 in 6.2 mi WNW 12.7 mph - N/A   Scattered Clouds
8:50 AM 46 °F - 38 °F 67% 29.45 in 12 mi West 13.8 mph - -   Partly Cloudy
8:50 AM 46.4 °F 40.4 °F 39.2 °F 76% 29.44 in 6.2 mi West 13.8 mph - N/A   Scattered Clouds
9:50 AM 48.2 °F - 39.2 °F 71% 29.44 in 6.2 mi West 15.0 mph - N/A   Mostly Cloudy
10:50 AM 48.2 °F - 39.2 °F 71% 29.44 in 6.2 mi West 13.8 mph - N/A   Mostly Cloudy
11:50 AM 49 °F - 40 °F 61% 29.47 in 12 mi WSW 10.4 mph - -   Mostly Cloudy
11:50 AM 48.2 °F - 39.2 °F 71% 29.44 in 6.2 mi WSW 10.4 mph - N/A   Mostly Cloudy
12:50 PM 42.8 °F 34.0 °F 39.2 °F 87% 29.47 in 5.0 mi SW 20.7 mph 36.8 mph N/A Rain Light Rain Showers
1:50 PM 48.2 °F - 41.0 °F 76% 29.47 in 6.2 mi SW 11.5 mph - N/A   Mostly Cloudy
2:50 PM 47 °F - 41 °F 73% 29.48 in 11 mi WNW 18.4 mph - -   Mostly Cloudy
2:50 PM 46.4 °F 39.2 °F 41.0 °F 81% 29.47 in 6.2 mi WNW 18.4 mph 29.9 mph N/A   Scattered Clouds
3:50 PM 48.2 °F - 39.2 °F 71% 29.47 in 6.2 mi West 11.5 mph 25.3 mph N/A   Scattered Clouds
4:50 PM 46.4 °F 41.1 °F 39.2 °F 76% 29.47 in 6.2 mi WSW 11.5 mph 23.0 mph N/A   Scattered Clouds
5:50 PM 46 °F - 40 °F 73% 29.49 in 12 mi WSW 11.5 mph - -   Partly Cloudy
5:50 PM 46.4 °F 41.1 °F 41.0 °F 81% 29.47 in 6.2 mi WSW 11.5 mph - N/A   Mostly Cloudy
6:50 PM 46.4 °F 40.7 °F 39.2 °F 76% 29.47 in 6.2 mi WSW 12.7 mph 28.8 mph N/A   Mostly Cloudy
7:50 PM 46.4 °F 41.9 °F 39.2 °F 76% 29.47 in 6.2 mi WSW 9.2 mph - N/A   Scattered Clouds
8:50 PM 47 °F - 39 °F 67% 29.47 in 12 mi WSW 12.7 mph - -   Mostly Cloudy
8:50 PM 46.4 °F 40.7 °F 39.2 °F 76% 29.44 in 6.2 mi WSW 12.7 mph - N/A   Mostly Cloudy
9:50 PM 48.2 °F - 41.0 °F 76% 29.44 in 6.2 mi SW 12.7 mph - N/A   Mostly Cloudy
10:50 PM 48.2 °F - 41.0 °F 76% 29.42 in 6.2 mi SW 10.4 mph - N/A   Mostly Cloudy
11:50 PM 48 °F - 41 °F 70% 29.41 in 12 mi South 5.8 mph - -   Mostly Cloudy
11:50 PM 48.2 °F - 41.0 °F 76% 29.39 in 6.2 mi South 5.8 mph - N/A   Mostly Cloudy